Miscellaneous Local Product
Issued by NWS Hastings, NE

Home | Current Version | Previous Version | Text Only | Print | Product List | Glossary On
Versions: 1 2 3 4 5 6 7 8 9 10 11 12 13 14 15 16 17 18 19 20 21 22 23 24 25 26 27 28 29 30 31 32 33 34 35 36 37 38 39 40 41 42 43 44 45 46 47 48 49 50
000
AXUS43 KGID 041002
MISGRI

GID CWA HOURLY WEATHER ROUNDUP
NATIONAL WEATHER SERVICE HASTINGS NE
500 AM CDT SAT JUL 04 2015

NOTE: "FAIR" INDICATES FEW OR NO CLOUDS BELOW 12,000 FEET WITH NO
SIGNIFICANT WEATHER AND/OR OBSTRUCTIONS TO VISIBILITY.

...SOUTH CENTRAL NEBRASKA...

CITY           SKY/WX    TMP DP  RH WIND       PRES   REMARKS
GRAND ISLAND   CLEAR     62  59  90 S6        30.01S
HASTINGS       CLEAR     62  60  93 S3        30.00F
KEARNEY        CLEAR     61  57  88 S5        30.01S
ORD            CLEAR     59  58  96 CALM      29.98F FOG
YORK           CLOUDY    61  59  94 CALM      30.00S
AURORA         CLEAR     59  59 100 SW3       30.00S FOG
LEXINGTON      CLEAR     64  61  91 SE5       30.00F
HOLDREGE       CLEAR     60  58  93 CALM      30.01S
HEBRON         CLEAR     60  58  92 CALM      30.00S FOG

...NEBRASKA PANHANDLE...

CITY           SKY/WX    TMP DP  RH WIND       PRES   REMARKS
CHADRON        PTCLDY    71  59  65 S15       29.90F
ALLIANCE       PTCLDY    63  60  90 SE9       29.97F
SCOTTSBLUFF    MOCLDY    67  60  78 E8        29.96S
SIDNEY         CLEAR     63  59  87 S7        30.02F

...WESTERN AND NORTH CENTRAL NEBRASKA...

CITY           SKY/WX    TMP DP  RH WIND       PRES   REMARKS
VALENTINE      PTCLDY    61  59  93 S7        29.95F
AINSWORTH      CLEAR     63  62  97 S7        29.97F
ONEILL         CLEAR     61  61  99 S5        29.99R FOG
BROKEN BOW     PTCLDY    62  60  93 S6        30.00F FOG
IMPERIAL       PTCLDY    65  58  78 SE8       30.00S
NORTH PLATTE   PTCLDY    66  59  78 SE8       30.00S
MCCOOK         CLEAR     63  59  87 SE5       29.99F

...EASTERN NEBRASKA...

CITY           SKY/WX    TMP DP  RH WIND       PRES   REMARKS
NORFOLK        CLEAR     57  56  96 CALM      29.98F FOG
SO SIOUX CITY  CLEAR     59  55  87 E3        29.99R
TEKAMAH        CLEAR     55  53  93 CALM      29.98S FOG
COLUMBUS         N/A     55  50  82 CALM      29.98S VSB 1/4
ALBION         CLEAR     58  56  93 CALM      30.00R FOG
OMAHA EPPLEY   CLEAR     57  57 100 NW5       29.99S FOG
OFFUTT AFB     CLEAR     54  54  99 CALM      29.98R FOG
MILLARD          N/A     58  57  96 CALM      29.99R FOG
LINCOLN        CLEAR     59  57  93 CALM      29.99S FOG
NEBRASKA CITY  HAZE      60  54  78 CALM      29.99S VSB 1/2
BEATRICE       CLEAR     58  56  93 CALM      29.99S
FALLS CITY     CLEAR     60  58  92 CALM      29.98F

...NORTHERN KANSAS...

CITY           SKY/WX    TMP DP  RH WIND       PRES   REMARKS
GOODLAND       PTCLDY    64  59  83 S14       30.01F
HILL CITY      MOCLDY    64  60  87 CALM      30.00S
NORTON         MOSUNNY   63  55  77 SE3       30.00S
PHILLIPSBURG   CLEAR     64  63  94 NE3       30.00S FOG
SMITH CENTER   CLEAR     61  59  94 E6        30.00S
HAYS           CLEAR     63  55  77 E3        30.00R
RUSSELL        CLEAR     63  61  93 SE8       29.98S
CONCORDIA      CLEAR     59  55  87 CALM      30.00R
SALINA         CLEAR     64  57  78 S5        29.99F
TOPEKA         FOG       61  60  97 NW3       29.99S VSB 1



USA.gov is the U.S. government's official web portal to all federal, state and local government web resources and services.